Year,Month,Day,Hour,Minute,Value (Times are PST for temperature in C)
2010,08,14,02,16,14.70
2010,08,14,02,17,14.70
2010,08,14,02,18,14.70
2010,08,14,02,19,14.70
2010,08,14,02,20,14.70
2010,08,14,02,21,14.70
2010,08,14,02,22,14.70
2010,08,14,02,23,14.70
2010,08,14,02,24,14.70
2010,08,14,02,25,14.70
2010,08,14,02,26,14.70
2010,08,14,02,27,14.70
2010,08,14,02,28,14.70
2010,08,14,02,29,14.70
2010,08,14,02,30,14.70
2010,08,14,02,31,14.70
2010,08,14,02,32,14.70
2010,08,14,02,33,14.70
2010,08,14,02,34,14.70
2010,08,14,02,35,14.70
2010,08,14,02,36,14.70
2010,08,14,02,37,14.70
2010,08,14,02,38,14.70
2010,08,14,02,39,14.70
2010,08,14,02,40,14.70
2010,08,14,02,41,14.70
2010,08,14,02,42,14.70
2010,08,14,02,43,14.70
2010,08,14,02,44,14.70
2010,08,14,02,45,14.70
2010,08,14,02,46,14.40
2010,08,14,02,47,14.40
2010,08,14,02,48,14.40
2010,08,14,02,49,14.40
2010,08,14,02,50,14.40
2010,08,14,02,51,14.40
2010,08,14,02,52,14.40
2010,08,14,02,53,14.40
2010,08,14,02,54,14.40
2010,08,14,02,55,14.40
2010,08,14,02,56,14.40
2010,08,14,02,57,14.40
2010,08,14,02,58,14.40
2010,08,14,02,59,14.40
2010,08,14,03,00,14.40
2010,08,14,03,01,14.20
2010,08,14,03,02,14.20
2010,08,14,03,03,14.20
2010,08,14,03,04,14.20
2010,08,14,03,05,14.20
2010,08,14,03,06,14.20
2010,08,14,03,07,14.20
2010,08,14,03,08,14.20
2010,08,14,03,09,14.20
2010,08,14,03,10,14.20
2010,08,14,03,11,14.20
2010,08,14,03,12,14.20
2010,08,14,03,13,14.20
2010,08,14,03,14,14.20
2010,08,14,03,15,14.20
2010,08,14,03,16,13.90
2010,08,14,03,17,13.90
2010,08,14,03,18,13.90
2010,08,14,03,19,13.90
2010,08,14,03,20,13.90
2010,08,14,03,21,13.90
2010,08,14,03,22,13.90
2010,08,14,03,23,13.90
2010,08,14,03,24,13.90
2010,08,14,03,25,13.90
2010,08,14,03,26,13.90
2010,08,14,03,27,13.90
2010,08,14,03,28,13.90
2010,08,14,03,29,13.90
2010,08,14,03,30,13.90
2010,08,14,03,31,13.40
2010,08,14,03,32,13.40
2010,08,14,03,33,13.40
2010,08,14,03,34,13.40
2010,08,14,03,35,13.40
2010,08,14,03,36,13.40
2010,08,14,03,37,13.40
2010,08,14,03,38,13.40
2010,08,14,03,39,13.40
2010,08,14,03,40,13.40
2010,08,14,03,41,13.40
2010,08,14,03,42,13.40
2010,08,14,03,43,13.40
2010,08,14,03,44,13.40
2010,08,14,03,45,13.40
2010,08,14,03,46,13.60
2010,08,14,03,47,13.60
2010,08,14,03,48,13.60
2010,08,14,03,49,13.60
2010,08,14,03,50,13.60
2010,08,14,03,51,13.60
2010,08,14,03,52,13.60
2010,08,14,03,53,13.60
2010,08,14,03,54,13.60
2010,08,14,03,55,13.60
2010,08,14,03,56,13.60
2010,08,14,03,57,13.60
2010,08,14,03,58,13.60
2010,08,14,03,59,13.60
2010,08,14,04,00,13.60
2010,08,14,04,01,13.80
2010,08,14,04,02,13.80
2010,08,14,04,03,13.80
2010,08,14,04,04,13.80
2010,08,14,04,05,13.80
2010,08,14,04,06,13.80
2010,08,14,04,07,13.80
2010,08,14,04,08,13.80
2010,08,14,04,09,13.80
2010,08,14,04,10,13.80
2010,08,14,04,11,13.80
2010,08,14,04,12,13.80
2010,08,14,04,13,13.80
2010,08,14,04,14,13.80
2010,08,14,04,15,13.80
2010,08,14,04,16,13.80
2010,08,14,04,17,13.80
2010,08,14,04,18,13.80
2010,08,14,04,19,13.80
2010,08,14,04,20,13.80
2010,08,14,04,21,13.80
2010,08,14,04,22,13.80
2010,08,14,04,23,13.80
2010,08,14,04,24,13.80
2010,08,14,04,25,13.80
2010,08,14,04,26,13.80
2010,08,14,04,27,13.80
2010,08,14,04,28,13.80
2010,08,14,04,29,13.80
2010,08,14,04,30,13.80
2010,08,14,04,31,13.60
2010,08,14,04,32,13.60
2010,08,14,04,33,13.60
2010,08,14,04,34,13.60
2010,08,14,04,35,13.60
2010,08,14,04,36,13.60
2010,08,14,04,37,13.60
2010,08,14,04,38,13.60
2010,08,14,04,39,13.60
2010,08,14,04,40,13.60
2010,08,14,04,41,13.60
2010,08,14,04,42,13.60
2010,08,14,04,43,13.60
2010,08,14,04,44,13.60
2010,08,14,04,45,13.60
2010,08,14,04,46,13.10
2010,08,14,04,47,13.10
2010,08,14,04,48,13.10
2010,08,14,04,49,13.10
2010,08,14,04,50,13.10
2010,08,14,04,51,13.10
2010,08,14,04,52,13.10
2010,08,14,04,53,13.10
2010,08,14,04,54,13.10
2010,08,14,04,55,13.10
2010,08,14,04,56,13.10
2010,08,14,04,57,13.10
2010,08,14,04,58,13.10
2010,08,14,04,59,13.10
2010,08,14,05,00,13.10
2010,08,14,05,01,13.10
2010,08,14,05,02,13.10
2010,08,14,05,03,13.10
2010,08,14,05,04,13.10
2010,08,14,05,05,13.10
2010,08,14,05,06,13.10
2010,08,14,05,07,13.10
2010,08,14,05,08,13.10
2010,08,14,05,09,13.10
2010,08,14,05,10,13.10
2010,08,14,05,11,13.10
2010,08,14,05,12,13.10
2010,08,14,05,13,13.10
2010,08,14,05,14,13.10
2010,08,14,05,15,13.10
2010,08,14,05,16,12.90
2010,08,14,05,17,12.90
2010,08,14,05,18,12.90
2010,08,14,05,19,12.90
2010,08,14,05,20,12.90
2010,08,14,05,21,12.90
2010,08,14,05,22,12.90
2010,08,14,05,23,12.90
2010,08,14,05,24,12.90
2010,08,14,05,25,12.90
2010,08,14,05,26,12.90
2010,08,14,05,27,12.90
2010,08,14,05,28,12.90
2010,08,14,05,29,12.90
2010,08,14,05,30,12.90
2010,08,14,05,31,12.90
2010,08,14,05,32,12.90
2010,08,14,05,33,12.90
2010,08,14,05,34,12.90
2010,08,14,05,35,12.90
2010,08,14,05,36,12.90
2010,08,14,05,37,12.90
2010,08,14,05,38,12.90
2010,08,14,05,39,12.90
2010,08,14,05,40,12.90
2010,08,14,05,41,12.90
2010,08,14,05,42,12.90
2010,08,14,05,43,12.90
2010,08,14,05,44,12.90
2010,08,14,05,45,12.90
2010,08,14,05,46,12.60
2010,08,14,05,47,12.60
2010,08,14,05,48,12.60
2010,08,14,05,49,12.60
2010,08,14,05,50,12.60
2010,08,14,05,51,12.60
2010,08,14,05,52,12.60
2010,08,14,05,53,12.60
2010,08,14,05,54,12.60
2010,08,14,05,55,12.60
2010,08,14,05,56,12.60
2010,08,14,05,57,12.60
2010,08,14,05,58,12.60
2010,08,14,05,59,12.60
2010,08,14,06,00,12.60
2010,08,14,06,01,12.60
2010,08,14,06,02,12.60
2010,08,14,06,03,12.60
2010,08,14,06,04,12.60
2010,08,14,06,05,12.60
2010,08,14,06,06,12.60
2010,08,14,06,07,12.60
2010,08,14,06,08,12.60
2010,08,14,06,09,12.60
2010,08,14,06,10,12.60
2010,08,14,06,11,12.60
2010,08,14,06,12,12.60
2010,08,14,06,13,12.60
2010,08,14,06,14,12.60
2010,08,14,06,15,12.60
2010,08,14,06,16,12.80
2010,08,14,06,17,12.80
2010,08,14,06,18,12.80
2010,08,14,06,19,12.80
2010,08,14,06,20,12.80
2010,08,14,06,21,12.80
2010,08,14,06,22,12.80
2010,08,14,06,23,12.80
2010,08,14,06,24,12.80
2010,08,14,06,25,12.80
2010,08,14,06,26,12.80
2010,08,14,06,27,12.80
2010,08,14,06,28,12.80
2010,08,14,06,29,12.80
2010,08,14,06,30,12.80
2010,08,14,06,31,13.30
2010,08,14,06,32,13.30
2010,08,14,06,33,13.30
2010,08,14,06,34,13.30
2010,08,14,06,35,13.30
2010,08,14,06,36,13.30
2010,08,14,06,37,13.30
2010,08,14,06,38,13.30
2010,08,14,06,39,13.30
2010,08,14,06,40,13.30
2010,08,14,06,41,13.30
2010,08,14,06,42,13.30
2010,08,14,06,43,13.30
2010,08,14,06,44,13.30
2010,08,14,06,45,13.30
2010,08,14,06,46,13.80
2010,08,14,06,47,13.80
2010,08,14,06,48,13.80
2010,08,14,06,49,13.80
2010,08,14,06,50,13.80
2010,08,14,06,51,13.80
2010,08,14,06,52,13.80
2010,08,14,06,53,13.80
2010,08,14,06,54,13.80
2010,08,14,06,55,13.80
2010,08,14,06,56,13.80
2010,08,14,06,57,13.80
2010,08,14,06,58,13.80
2010,08,14,06,59,13.80
2010,08,14,07,00,13.80
2010,08,14,07,01,14.20
2010,08,14,07,02,14.20
2010,08,14,07,03,14.20
2010,08,14,07,04,14.20
2010,08,14,07,05,14.20
2010,08,14,07,06,14.20
2010,08,14,07,07,14.20
2010,08,14,07,08,14.20
2010,08,14,07,09,14.20
2010,08,14,07,10,14.20
2010,08,14,07,11,14.20
2010,08,14,07,12,14.20
2010,08,14,07,13,14.20
2010,08,14,07,14,14.20
2010,08,14,07,15,14.20
2010,08,14,07,16,14.50
2010,08,14,07,17,14.50
2010,08,14,07,18,14.50
2010,08,14,07,19,14.50
2010,08,14,07,20,14.50
2010,08,14,07,21,14.50
2010,08,14,07,22,14.50
2010,08,14,07,23,14.50
2010,08,14,07,24,14.50
2010,08,14,07,25,14.50
2010,08,14,07,26,14.50
2010,08,14,07,27,14.50
2010,08,14,07,28,14.50
2010,08,14,07,29,14.50
2010,08,14,07,30,14.50
2010,08,14,07,31,14.90
2010,08,14,07,32,14.90
2010,08,14,07,33,14.90
2010,08,14,07,34,14.90
2010,08,14,07,35,14.90
2010,08,14,07,36,14.90
2010,08,14,07,37,14.90
2010,08,14,07,38,14.90
2010,08,14,07,39,14.90
2010,08,14,07,40,14.90
2010,08,14,07,41,14.90
2010,08,14,07,42,14.90
2010,08,14,07,43,14.90
2010,08,14,07,44,14.90
2010,08,14,07,45,14.90
2010,08,14,07,46,14.90
2010,08,14,07,47,14.90
2010,08,14,07,48,14.90
2010,08,14,07,49,14.90
2010,08,14,07,50,14.90
2010,08,14,07,51,14.90
2010,08,14,07,52,14.90
2010,08,14,07,53,14.90
2010,08,14,07,54,14.90
2010,08,14,07,55,14.90
2010,08,14,07,56,14.90
2010,08,14,07,57,14.90
2010,08,14,07,58,14.90
2010,08,14,07,59,14.90
2010,08,14,08,00,14.90
2010,08,14,08,01,14.90
2010,08,14,08,02,14.90
2010,08,14,08,03,14.90
2010,08,14,08,04,14.90
2010,08,14,08,05,14.90
2010,08,14,08,06,14.90
2010,08,14,08,07,14.90
2010,08,14,08,08,14.90
2010,08,14,08,09,14.90
2010,08,14,08,10,14.90
2010,08,14,08,11,14.90
2010,08,14,08,12,14.90
2010,08,14,08,13,14.90
2010,08,14,08,14,14.90
2010,08,14,08,15,14.90
2010,08,14,08,16,14.70
2010,08,14,08,17,14.70
2010,08,14,08,18,14.70
2010,08,14,08,19,14.70
2010,08,14,08,20,14.70
2010,08,14,08,21,14.70
2010,08,14,08,22,14.70
2010,08,14,08,23,14.70
2010,08,14,08,24,14.70
2010,08,14,08,25,14.70
2010,08,14,08,26,14.70
2010,08,14,08,27,14.70
2010,08,14,08,28,14.70
2010,08,14,08,29,14.70
2010,08,14,08,30,14.70
2010,08,14,08,31,15.10
2010,08,14,08,32,15.10
2010,08,14,08,33,15.10
2010,08,14,08,34,15.10
2010,08,14,08,35,15.10
2010,08,14,08,36,15.10
2010,08,14,08,37,15.10
2010,08,14,08,38,15.10
2010,08,14,08,39,15.10
2010,08,14,08,40,15.10
2010,08,14,08,41,15.10
2010,08,14,08,42,15.10
2010,08,14,08,43,15.10
2010,08,14,08,44,15.10
2010,08,14,08,45,15.10
2010,08,14,08,46,15.90
2010,08,14,08,47,15.90
2010,08,14,08,48,15.90
2010,08,14,08,49,15.90
2010,08,14,08,50,15.90
2010,08,14,08,51,15.90
2010,08,14,08,52,15.90
2010,08,14,08,53,15.90
2010,08,14,08,54,15.90
2010,08,14,08,55,15.90
2010,08,14,08,56,15.90
2010,08,14,08,57,15.90
2010,08,14,08,58,15.90
2010,08,14,08,59,15.90
2010,08,14,09,00,15.90
2010,08,14,09,01,16.20
2010,08,14,09,02,16.20
2010,08,14,09,03,16.20
2010,08,14,09,04,16.20
2010,08,14,09,05,16.20
2010,08,14,09,06,16.20
2010,08,14,09,07,16.20
2010,08,14,09,08,16.20
2010,08,14,09,09,16.20
2010,08,14,09,10,16.20
2010,08,14,09,11,16.20
2010,08,14,09,12,16.20
2010,08,14,09,13,16.20
2010,08,14,09,14,16.20
2010,08,14,09,15,16.20
2010,08,14,21,01,19.60
2010,08,14,21,02,19.60
2010,08,14,21,03,19.60
2010,08,14,21,04,19.60
2010,08,14,21,05,19.60
2010,08,14,21,06,19.60
2010,08,14,21,07,19.60
2010,08,14,21,08,19.60
2010,08,14,21,09,19.60
2010,08,14,21,10,19.60
2010,08,14,21,11,19.60
2010,08,14,21,12,19.60
2010,08,14,21,13,19.60
2010,08,14,21,14,19.60
2010,08,14,21,15,19.60
2010,08,14,21,16,19.60
2010,08,14,21,17,19.60
2010,08,14,21,18,19.60
2010,08,14,21,19,19.60
2010,08,14,21,20,19.60
2010,08,14,21,21,19.60
2010,08,14,21,22,19.60
2010,08,14,21,23,19.60
2010,08,14,21,24,19.60
2010,08,14,21,25,19.60
2010,08,14,21,26,19.60
2010,08,14,21,27,19.60
2010,08,14,21,28,19.60
2010,08,14,21,29,19.60
2010,08,14,21,30,19.60
2010,08,14,21,31,18.10
2010,08,14,21,32,18.10
2010,08,14,21,33,18.10
2010,08,14,21,34,18.10
2010,08,14,21,35,18.10
2010,08,14,21,36,18.10
2010,08,14,21,37,18.10
2010,08,14,21,38,18.10
2010,08,14,21,39,18.10
2010,08,14,21,40,18.10
2010,08,14,21,41,18.10
2010,08,14,21,42,18.10
2010,08,14,21,43,18.10
2010,08,14,21,44,18.10
2010,08,14,21,45,18.10
2010,08,14,21,46,16.70
2010,08,14,21,47,16.70
2010,08,14,21,48,16.70
2010,08,14,21,49,16.70
2010,08,14,21,50,16.70
2010,08,14,21,51,16.70
2010,08,14,21,52,16.70
2010,08,14,21,53,16.70
2010,08,14,21,54,16.70
2010,08,14,21,55,16.70
2010,08,14,21,56,16.70
2010,08,14,21,57,16.70
2010,08,14,21,58,16.70
2010,08,14,21,59,16.70
2010,08,14,22,00,16.70
2010,08,14,22,01,16.00
2010,08,14,22,02,16.00
2010,08,14,22,03,16.00
2010,08,14,22,04,16.00
2010,08,14,22,05,16.00
2010,08,14,22,06,16.00
2010,08,14,22,07,16.00
2010,08,14,22,08,16.00
2010,08,14,22,09,16.00
2010,08,14,22,10,16.00
2010,08,14,22,11,16.00
2010,08,14,22,12,16.00
2010,08,14,22,13,16.00
2010,08,14,22,14,16.00
2010,08,14,22,15,16.00
2010,08,14,22,16,16.90
2010,08,14,22,17,16.90
2010,08,14,22,18,16.90
2010,08,14,22,19,16.90
2010,08,14,22,20,16.90
2010,08,14,22,21,16.90
2010,08,14,22,22,16.90
2010,08,14,22,23,16.90
2010,08,14,22,24,16.90
2010,08,14,22,25,16.90
2010,08,14,22,26,16.90
2010,08,14,22,27,16.90
2010,08,14,22,28,16.90
2010,08,14,22,29,16.90
2010,08,14,22,30,16.90
2010,08,14,22,31,17.30
2010,08,14,22,32,17.30
2010,08,14,22,33,17.30
2010,08,14,22,34,17.30
2010,08,14,22,35,17.30
2010,08,14,22,36,17.30
2010,08,14,22,37,17.30
2010,08,14,22,38,17.30
2010,08,14,22,39,17.30
2010,08,14,22,40,17.30
2010,08,14,22,41,17.30
2010,08,14,22,42,17.30
2010,08,14,22,43,17.30
2010,08,14,22,44,17.30
2010,08,14,22,45,17.30
2010,08,14,22,46,17.30
2010,08,14,22,47,15.60
2010,08,14,22,48,15.60
2010,08,14,22,49,15.60
2010,08,14,22,50,15.60
2010,08,14,22,51,15.60
2010,08,14,22,52,15.60
2010,08,14,22,53,15.60
2010,08,14,22,54,15.60
2010,08,14,22,55,15.60
2010,08,14,22,56,15.60
2010,08,14,22,57,15.60
2010,08,14,22,58,15.60
2010,08,14,22,59,15.60
2010,08,14,23,00,15.60
2010,08,14,23,01,14.90
2010,08,14,23,02,14.90
2010,08,14,23,03,14.90
2010,08,14,23,04,14.90
2010,08,14,23,05,14.90
2010,08,14,23,06,14.90
2010,08,14,23,07,14.90
2010,08,14,23,08,14.90
2010,08,14,23,09,14.90
2010,08,14,23,10,14.90
2010,08,14,23,11,14.90
2010,08,14,23,12,14.90
2010,08,14,23,13,14.90
2010,08,14,23,14,14.90
2010,08,14,23,15,14.90
2010,08,14,23,16,14.90
2010,08,14,23,17,15.10
2010,08,14,23,18,15.10
2010,08,14,23,19,15.10
2010,08,14,23,20,15.10
2010,08,14,23,21,15.10
2010,08,14,23,22,15.10
2010,08,14,23,23,15.10
2010,08,14,23,24,15.10
2010,08,14,23,25,15.10
2010,08,14,23,26,15.10
2010,08,14,23,27,15.10
2010,08,14,23,28,15.10
2010,08,14,23,29,15.10
2010,08,14,23,30,15.10
2010,08,14,23,31,15.70
2010,08,14,23,32,15.70
2010,08,14,23,33,15.70
2010,08,14,23,34,15.70
2010,08,14,23,35,15.70
2010,08,14,23,36,15.70
2010,08,14,23,37,15.70
2010,08,14,23,38,15.70
2010,08,14,23,39,15.70
2010,08,14,23,40,15.70
2010,08,14,23,41,15.70
2010,08,14,23,42,15.70
2010,08,14,23,43,15.70
2010,08,14,23,44,15.70
2010,08,14,23,45,15.70
2010,08,14,23,46,15.70
2010,08,14,23,47,16.10
2010,08,14,23,48,16.10
2010,08,14,23,49,16.10
2010,08,14,23,50,16.10
2010,08,14,23,51,16.10
2010,08,14,23,52,16.10
2010,08,14,23,53,16.10
2010,08,14,23,54,16.10
2010,08,14,23,55,16.10
2010,08,14,23,56,16.10
2010,08,14,23,57,16.10
2010,08,14,23,58,16.10
2010,08,14,23,59,16.10
